Wind_Speed
5 6 6 4 5 3 6 9 8 5 2 5 7 8 8 7 7 7 7 8 10 11 12 14 16 18 20 22 23 25 26 28 30 33 35 38 40 42 43 44 44 44 44 43 42 41 40 38 37
10 10 9 7 9 10 9 10 12 8 4 2 4 6 7 7 7 9 9 10 11 13 14 16 18 20 21 23 25 26 28 29 30 32 33 35 37 39 41 42 43 44 45 46 46 45 44 43 42
12 13 11 11 11 12 12 12 11 7 4 2 3 5 8 10 12 12 13 13 13 14 15 17 18 20 22 24 25 27 29 31 32 33 34 36 37 38 40 41 42 44 45 46 46 47 48 47 46
15 15 12 13 13 13 13 12 11 8 6 6 7 9 11 11 11 11 13 14 16 17 19 21 23 25 27 29 31 32 34 35 36 37 38 39 40 41 42 43 44 44 45 46 47 48 49 50 50
14 12 11 11 11 11 11 12 11 10 10 10 10 10 11 11 12 13 16 18 20 22 25 27 30 32 35 37 39 41 42 43 44 45 46 46 47 47 47 48 48 48 48 47 47 48 49 51 51
12 11 13 13 14 15 15 15 14 13 12 10 9 10 11 13 15 18 20 23 25 28 31 34 37 40 42 45 47 49 51 53 54 55 56 56 55 56 55 55 55 54 54 53 51 50 49 50 53
16 18 19 18 19 19 17 15 13 12 10 10 12 12 14 16 18 21 24 27 30 34 37 40 43 46 49 52 55 57 60 62 63 64 65 65 65 65 64 63 62 60 59 59 58 56 55 53 53
21 21 21 19 18 17 15 12 11 9 9 11 13 15 17 20 23 26 30 33 36 40 43 46 49 52 56 59 62 65 68 70 71 73 73 73 73 72 71 70 70 68 66 64 63 62 61 60 58
20 19 17 16 14 13 11 9 9 10 10 13 16 19 22 25 28 32 35 38 42 46 49 52 55 59 62 65 69 72 75 77 79 79 80 80 80 79 78 77 75 74 72 70 68 67 66 65 64
15 14 13 12 11 9 9 9 11 12 14 17 20 23 26 29 32 36 39 43 46 49 53 56 59 62 65 69 72 75 78 80 82 83 84 84 84 84 84 82 80 78 77 75 74 72 70 69 69
11 10 9 8 8 8 8 10 12 15 17 20 23 26 29 32 36 39 42 46 49 52 56 60 63 67 71 74 77 80 81 83 85 87 88 88 88 88 88 88 86 84 82 80 78 77 74 73 72
5 5 5 6 7 8 10 12 14 16 19 22 25 28 31 35 38 42 45 49 53 57 60 64 68 72 76 80 82 85 86 88 90 92 92 93 93 92 92 92 91 90 88 86 84 82 79 77 76
2 4 6 8 10 12 13 14 17 19 21 24 26 30 33 37 41 45 49 53 56 60 64 68 73 77 80 83 86 89 92 94 97 98 97 97 96 96 94 94 93 92 91 90 88 86 84 82 80
7 8 9 11 12 14 16 18 19 21 23 25 28 32 35 39 43 47 52 56 60 64 68 73 76 80 83 87 91 94 97 98 98 96 94 91 89 87 86 84 84 84 85 86 86 86 84 84 83
11 13 14 13 13 15 17 20 22 23 25 27 31 35 38 42 47 51 55 59 64 68 72 76 79 83 87 91 95 97 95 91 86 82 77 74 72 70 70 70 71 72 73 75 77 79 81 81 83
14 16 16 15 15 16 18 20 22 24 27 31 35 39 43 47 51 54 58 63 67 72 75 79 83 87 91 95 96 91 83 77 71 68 66 65 64 64 63 63 62 63 65 67 68 70 73 76 79
15 16 17 16 15 16 18 20 24 26 30 35 39 43 46 50 54 57 61 67 72 75 78 83 88 91 93 94 88 79 73 69 68 67 66 65 64 63 63 62 61 60 61 63 66 67 68 70 73
12 13 14 14 15 16 18 22 26 30 34 38 41 45 49 53 57 61 67 72 76 78 82 87 90 92 92 86 77 71 69 68 68 66 65 64 63 62 61 60 59 59 59 60 63 67 69 69 69
13 14 14 15 16 18 21 24 28 33 36 38 42 46 51 55 60 66 72 76 78 81 85 88 90 90 87 79 72 68 67 68 67 66 64 62 60 59 58 57 57 57 57 57 59 63 68 71 72
14 14 14 14 16 18 21 24 29 32 35 39 44 48 53 58 63 69 74 76 79 83 86 88 89 86 80 74 71 70 70 68 65 62 59 57 55 54 52 51 50 50 51 53 55 57 62 68 73
13 13 13 13 16 20 22 22 28 33 38 43 47 50 54 60 66 71 74 77 80 83 86 87 86 81 75 71 70 70 69 64 58 53 51 51 49 48 47 45 44 43 43 44 47 51 55 60 66
12 13 13 14 18 23 25 27 32 37 42 46 49 52 57 62 68 72 74 77 81 84 86 86 82 76 72 71 72 71 65 58 52 49 48 49 49 48 47 45 44 42 41 41 41 43 48 52 58
12 14 15 18 21 24 27 32 36 40 45 48 50 54 59 64 69 71 74 78 82 85 85 83 77 72 71 72 72 69 61 53 49 49 50 51 51 51 50 48 46 44 43 42 41 40 42 45 51
15 16 18 21 23 26 30 34 37 42 46 49 52 56 61 65 69 71 75 79 83 84 83 78 73 71 72 72 71 66 56 50 49 51 52 53 53 53 52 51 49 47 45 43 42 41 40 41 44
18 20 22 24 26 29 32 35 38 42 47 50 54 57 62 66 69 73 77 80 82 83 80 75 71 71 72 71 69 62 54 50 52 55 56 56 55 55 54 53 51 50 47 45 43 41 40 39 40
20 22 25 28 30 30 33 36 39 44 48 52 55 58 63 67 71 74 77 80 82 81 78 73 70 71 72 70 67 59 53 53 56 59 60 60 59 58 57 55 53 51 49 46 43 42 40 37 37
23 24 27 30 33 34 36 38 42 46 50 53 56 60 65 69 72 74 77 80 81 80 75 71 70 72 71 70 65 58 54 56 59 62 64 64 64 62 61 58 56 52 50 47 44 42 40 37 35
26 28 31 34 38 41 41 41 43 47 51 54 58 62 66 70 72 74 77 79 80 77 73 70 71 72 71 69 65 59 56 59 62 65 66 67 67 67 65 62 58 55 51 49 45 42 39 36 33
29 31 33 36 38 42 45 43 44 47 51 55 59 63 67 70 72 74 77 79 79 75 70 68 70 70 69 68 64 59 59 61 64 67 69 70 72 71 66 61 54 49 45 43 41 40 37 34 32
29 32 35 37 40 41 44 44 44 47 52 55 59 63 66 69 71 74 77 78 77 73 69 68 69 69 68 67 63 60 60 62 65 69 71 74 74 70 61 49 39 32 27 28 30 31 31 30 29
Wind_Direction
52 68 76 100 128 149 156 152 143 161 248 299 315 324 331 333 329 322 316 317 313 307 302 298 294 292 290 288 286 284 282 278 275 273 272 271 269 268 267 266 264 261 258 255 252 250 248 248 247
87 96 102 115 132 137 144 146 145 161 184 262 316 330 338 339 341 342 335 326 314 307 304 302 302 301 299 297 296 294 292 289 286 283 280 277 275 273 271 269 266 263 260 257 254 251 249 247 247
92 95 110 130 129 128 127 116 111 119 111 65 2 346 344 345 348 346 340 333 327 323 321 318 315 311 307 304 302 299 297 295 292 290 288 285 282 280 277 275 272 268 265 261 257 254 250 247 246
85 88 102 106 104 107 106 100 96 88 66 35 17 10 6 6 3 355 347 341 336 330 324 318 313 308 304 301 298 295 292 290 288 286 285 284 283 281 280 278 276 273 270 266 262 258 255 251 247
77 87 91 90 89 87 84 82 77 68 58 49 39 30 23 13 359 346 338 334 329 322 316 311 307 304 301 299 296 293 291 289 287 285 284 283 281 280 278 276 275 273 271 269 266 263 259 255 251
78 80 76 74 75 77 77 79 78 75 70 61 41 22 10 356 342 335 331 326 320 316 312 310 308 306 304 302 300 299 297 295 293 291 289 288 286 283 280 277 274 271 270 268 267 264 262 258 254
80 73 73 74 77 79 79 77 74 66 54 33 15 2 350 341 333 328 324 319 316 315 313 312 310 309 307 305 303 301 299 297 295 293 292 290 288 286 283 280 277 273 270 267 265 263 261 260 257
82 80 80 79 78 78 74 69 59 47 28 10 358 347 339 333 329 325 322 319 318 317 315 314 312 311 309 307 304 302 300 298 296 294 292 290 288 286 284 281 279 276 273 269 265 261 259 258 256
84 88 83 78 73 67 57 48 31 17 2 351 343 337 332 328 325 322 320 319 318 317 316 315 312 310 308 306 303 301 300 298 296 294 292 290 288 286 284 281 279 276 274 271 266 262 258 255 254
85 83 74 66 58 48 31 14 2 352 344 338 333 330 327 324 322 320 319 318 318 317 315 312 310 307 304 302 301 299 298 297 295 293 290 289 287 285 282 280 278 275 273 271 268 264 259 255 252
79 73 61 47 31 16 2 351 344 337 332 329 327 324 323 321 320 319 318 318 317 315 313 310 309 307 305 304 302 301 299 297 295 292 290 287 285 283 281 278 276 273 271 269 267 264 261 256 251
72 55 26 2 351 343 337 334 330 326 324 323 322 321 320 320 320 320 319 318 316 315 313 312 311 310 308 306 304 303 300 298 295 293 290 288 285 283 280 278 275 273 271 268 265 263 260 257 253
348 337 330 325 324 322 322 323 322 320 320 321 321 322 323 323 322 320 319 318 317 317 317 315 313 311 309 308 306 304 301 298 296 294 292 290 288 286 283 281 278 275 272 270 266 263 259 255 252
317 314 313 314 316 317 319 320 320 322 323 325 325 324 323 321 321 321 321 322 321 319 316 315 314 313 312 310 308 304 301 299 298 297 296 294 291 288 285 282 279 276 273 271 268 263 259 255 250
315 313 311 313 316 318 320 319 322 324 325 325 324 322 321 322 323 324 325 323 321 318 318 318 317 316 315 312 308 305 305 304 303 301 298 295 292 289 285 281 277 273 270 267 264 261 257 253 248
311 308 310 314 317 319 321 318 320 321 325 327 325 323 324 325 325 326 325 323 321 321 321 321 320 319 317 313 311 312 312 310 307 305 303 300 297 294 290 285 281 275 268 263 259 256 254 250 245
315 311 309 308 311 317 320 319 320 324 328 328 326 326 327 326 325 325 326 325 326 325 325 324 323 321 318 316 317 318 316 315 313 311 308 305 302 298 293 289 283 278 272 264 257 253 250 247 243
312 300 299 308 320 324 325 325 325 328 329 328 327 328 327 326 326 329 330 330 329 328 327 326 324 321 319 320 322 320 319 318 316 313 310 307 303 299 295 290 285 280 275 267 259 252 248 244 240
322 321 329 334 335 332 333 331 328 328 328 329 330 330 330 329 331 333 333 333 331 330 328 327 324 322 322 323 323 322 320 318 316 314 311 308 304 301 298 294 289 283 278 272 265 256 249 244 240
338 341 341 335 332 332 335 331 325 328 331 333 333 334 333 333 334 335 335 333 332 330 328 327 325 324 325 326 325 324 322 320 319 317 315 313 310 307 304 300 294 288 283 277 270 263 253 246 241
346 343 339 334 334 334 334 331 330 335 336 336 337 336 334 334 335 336 335 333 332 330 329 328 326 327 327 327 327 325 324 323 322 321 320 319 318 315 311 306 301 294 287 281 275 267 259 250 244
344 342 340 340 340 335 334 336 337 339 338 338 338 336 335 335 337 337 335 333 332 332 331 329 328 329 330 329 328 327 326 326 326 326 325 324 322 319 316 311 305 299 292 286 280 273 264 255 247
346 345 345 345 342 336 336 338 340 339 339 339 337 336 336 337 338 336 335 335 334 333 332 330 330 331 332 331 330 329 329 329 329 329 327 324 321 318 315 311 306 301 295 288 282 278 270 260 250
348 346 345 344 341 338 341 339 340 340 339 339 338 338 338 339 338 337 337 337 336 334 333 331 332 333 333 333 332 331 331 330 329 328 326 322 319 316 312 309 305 300 295 289 283 278 272 264 254
347 345 342 341 343 342 340 340 340 339 339 341 339 339 340 339 340 340 339 338 337 335 333 333 334 335 335 334 333 332 331 330 330 328 326 323 319 314 310 306 302 298 293 288 283 278 273 266 258
345 343 340 339 338 339 339 341 339 339 341 341 339 340 340 341 342 341 340 339 337 336 335 335 336 337 337 336 335 333 332 331 331 329 328 325 321 316 311 305 300 295 290 285 281 276 271 266 259
341 341 339 335 333 335 339 339 338 341 340 340 339 340 342 344 343 342 341 340 339 337 336 337 338 338 338 338 337 335 333 332 332 331 330 327 323 318 313 306 299 293 287 282 278 273 268 263 258
341 339 338 337 335 334 335 339 340 340 339 339 340 342 344 345 344 342 342 341 340 339 338 339 340 340 340 339 338 337 335 334 334 334 332 329 325 320 314 307 300 292 284 278 273 269 264 259 255
340 340 338 336 334 332 332 337 338 339 339 339 341 344 346 345 344 343 343 342 341 340 340 340 341 341 341 341 339 338 338 337 338 337 336 333 329 323 317 311 304 295 283 274 268 263 259 254 251
345 343 341 337 333 331 330 334 337 338 339 341 344 346 346 345 344 344 344 343 342 342 341 342 343 343 343 343 342 341 341 341 342 341 340 338 334 329 326 323 318 308 291 272 260 255 252 248 246
Height
5873 5874 5875 5877 5877 5876 5875 5875 5876 5877 5877 5876 5875 5875 5875 5876 5877 5879 5876 5874 5873 5871 5870 5868 5867 5865 5863 5861 5859 5858 5856 5854 5852 5850 5849 5847 5846 5845 5844 5843 5843 5843 5843 5844 5844 5845 5845 5845 5846
5873 5874 5876 5876 5875 5874 5876 5875 5875 5877 5878 5877 5876 5876 5876 5875 5875 5875 5874 5873 5872 5870 5868 5866 5864 5862 5860 5858 5856 5853 5851 5849 5847 5845 5843 5841 5839 5837 5835 5834 5833 5833 5833 5833 5834 5835 5836 5837 5837
5875 5875 5876 5876 5874 5875 5876 5876 5877 5878 5879 5879 5878 5878 5877 5876 5875 5874 5872 5871 5870 5868 5866 5864 5861 5859 5856 5854 5851 5849 5846 5843 5840 5838 5835 5833 5831 5829 5827 5825 5824 5823 5823 5822 5823 5824 5825 5826 5827
5879 5879 5880 5878 5878 5878 5878 5878 5879 5879 5879 5880 5880 5879 5877 5877 5876 5874 5871 5870 5868 5865 5863 5860 5858 5855 5852 5848 5845 5842 5839 5836 5833 5831 5828 5825 5823 5820 5818 5816 5814 5813 5812 5812 5812 5812 5813 5815 5816
5882 5882 5882 5880 5881 5880 5880 5880 5881 5881 5880 5880 5880 5879 5877 5876 5874 5872 5870 5867 5865 5862 5859 5856 5852 5848 5845 5841 5838 5834 5830 5827 5824 5820 5818 5815 5812 5809 5807 5805 5803 5802 5801 5800 5801 5801 5802 5803 5804
5884 5884 5883 5883 5883 5882 5882 5882 5882 5881 5881 5880 5880 5879 5877 5875 5872 5870 5867 5864 5861 5857 5854 5850 5846 5841 5837 5832 5828 5824 5819 5815 5812 5808 5805 5803 5800 5796 5794 5792 5790 5789 5788 5788 5788 5789 5789 5790 5791
5887 5886 5885 5885 5884 5884 5884 5883 5882 5882 5881 5880 5879 5877 5875 5872 5870 5867 5863 5860 5856 5852 5848 5844 5839 5834 5828 5823 5817 5812 5807 5802 5798 5794 5790 5787 5783 5780 5777 5775 5774 5774 5773 5774 5774 5774 5775 5776 5778
5887 5888 5887 5886 5886 5885 5885 5884 5883 5882 5881 5879 5877 5875 5873 5870 5866 5863 5859 5855 5850 5845 5840 5835 5830 5824 5818 5812 5805 5799 5793 5787 5781 5777 5773 5768 5764 5761 5758 5755 5754 5755 5755 5757 5757 5758 5759 5761 5763
5889 5890 5888 5888 5887 5886 5885 5884 5883 5881 5880 5878 5876 5873 5869 5866 5861 5857 5852 5847 5842 5837 5831 5826 5820 5813 5807 5800 5792 5785 5777 5770 5763 5758 5753 5747 5742 5738 5735 5733 5732 5732 5733 5735 5736 5738 5741 5743 5746
5890 5890 5889 5889 5887 5885 5884 5883 5881 5879 5877 5875 5872 5869 5865 5861 5856 5851 5846 5841 5836 5830 5824 5818 5811 5804 5796 5788 5779 5771 5762 5753 5745 5738 5734 5727 5720 5715 5711 5708 5707 5708 5708 5710 5712 5716 5719 5723 5727
5891 5890 5889 5888 5886 5884 5883 5881 5879 5877 5875 5872 5869 5865 5860 5855 5850 5845 5840 5835 5829 5823 5816 5808 5800 5791 5781 5772 5762 5753 5743 5733 5724 5715 5710 5703 5696 5690 5686 5682 5681 5682 5682 5684 5686 5690 5694 5699 5705
5891 5890 5889 5887 5885 5883 5881 5879 5877 5875 5873 5869 5865 5861 5856 5851 5845 5840 5834 5828 5821 5814 5805 5796 5785 5775 5764 5753 5742 5732 5721 5710 5699 5690 5682 5675 5667 5662 5657 5654 5652 5652 5653 5655 5659 5663 5668 5673 5679
5892 5890 5888 5886 5884 5881 5879 5877 5875 5872 5869 5865 5861 5856 5851 5845 5839 5833 5827 5820 5812 5803 5793 5782 5771 5760 5748 5736 5723 5710 5697 5684 5672 5661 5652 5643 5636 5630 5626 5622 5621 5621 5621 5624 5628 5633 5639 5646 5653
5892 5889 5887 5884 5882 5879 5876 5874 5871 5868 5865 5861 5856 5851 5846 5840 5833 5827 5819 5810 5800 5790 5781 5769 5757 5744 5730 5716 5701 5686 5671 5657 5644 5633 5623 5614 5607 5600 5596 5592 5590 5589 5589 5592 5595 5601 5609 5616 5624
5889 5887 5885 5882 5879 5877 5874 5870 5867 5864 5861 5857 5853 5847 5841 5834 5826 5818 5809 5799 5789 5779 5767 5754 5741 5726 5711 5695 5678 5661 5645 5630 5618 5607 5597 5589 5582 5575 5570 5566 5564 5562 5562 5563 5566 5570 5577 5586 5595
5887 5885 5883 5881 5878 5875 5874 5869 5865 5861 5858 5853 5847 5841 5834 5826 5818 5809 5799 5790 5779 5766 5752 5738 5723 5707 5689 5671 5652 5634 5620 5608 5597 5586 5577 5569 5562 5555 5549 5545 5541 5539 5538 5539 5540 5544 5549 5556 5565
5885 5882 5880 5879 5876 5873 5870 5866 5861 5857 5853 5847 5841 5834 5827 5818 5810 5801 5791 5779 5766 5751 5737 5722 5705 5688 5669 5650 5631 5615 5600 5589 5578 5569 5559 5551 5543 5535 5530 5525 5522 5518 5516 5516 5518 5521 5525 5532 5539
5884 5882 5879 5877 5874 5870 5866 5862 5857 5852 5847 5842 5835 5828 5820 5811 5802 5792 5780 5766 5751 5736 5720 5704 5687 5669 5650 5632 5616 5601 5587 5574 5562 5552 5542 5534 5525 5517 5511 5506 5501 5498 5496 5495 5496 5499 5503 5509 5516
5882 5879 5875 5872 5869 5866 5863 5858 5853 5848 5843 5837 5830 5822 5812 5802 5791 5780 5767 5753 5737 5721 5706 5689 5671 5652 5634 5618 5604 5591 5577 5563 5551 5538 5527 5517 5508 5500 5493 5487 5482 5478 5475 5474 5474 5476 5480 5486 5493
5878 5875 5872 5869 5867 5864 5860 5856 5850 5845 5839 5832 5824 5814 5803 5792 5781 5769 5756 5740 5725 5709 5692 5674 5654 5636 5619 5603 5589 5576 5562 5549 5536 5524 5512 5502 5494 5485 5478 5471 5465 5461 5457 5455 5454 5454 5458 5463 5469
5875 5873 5870 5868 5865 5861 5858 5855 5848 5841 5833 5825 5816 5805 5794 5783 5772 5759 5744 5729 5714 5697 5678 5659 5639 5621 5606 5591 5577 5564 5550 5536 5524 5513 5502 5492 5482 5474 5466 5459 5452 5447 5442 5439 5436 5435 5437 5442 5447
5874 5871 5868 5866 5862 5857 5854 5850 5843 5835 5826 5818 5808 5798 5787 5775 5762 5748 5734 5719 5702 5683 5664 5644 5625 5609 5593 5579 5565 5551 5538 5526 5514 5504 5493 5482 5472 5463 5455 5447 5441 5435 5429 5425 5422 5419 5419 5422 5427
5872 5869 5866 5862 5858 5854 5849 5843 5838 5829 5820 5811 5802 5790 5779 5766 5753 5740 5724 5707 5689 5670 5650 5631 5613 5597 5583 5568 5553 5539 5526 5514 5504 5494 5483 5472 5461 5451 5443 5435 5428 5421 5416 5411 5408 5405 5403 5404 5408
5870 5868 5864 5860 5856 5851 5845 5838 5832 5823 5814 5805 5794 5783 5771 5759 5746 5730 5714 5696 5677 5658 5639 5620 5604 5588 5573 5558 5543 5528 5516 5506 5496 5485 5474 5463 5452 5440 5430 5421 5413 5407 5401 5396 5393 5390 5389 5388 5390
5868 5865 5861 5856 5852 5847 5839 5833 5827 5817 5808 5798 5786 5775 5763 5751 5737 5720 5704 5686 5667 5649 5630 5612 5595 5579 5564 5548 5533 5518 5507 5496 5486 5475 5463 5451 5440 5428 5416 5406 5397 5390 5384 5380 5377 5375 5373 5374 5375
5866 5862 5858 5852 5846 5842 5835 5828 5821 5811 5801 5790 5780 5769 5757 5743 5727 5711 5695 5677 5658 5639 5620 5603 5587 5571 5555 5539 5524 5510 5497 5486 5475 5462 5449 5436 5423 5411 5399 5388 5379 5371 5365 5362 5360 5359 5358 5359 5360
5864 5859 5854 5848 5841 5835 5830 5823 5813 5804 5795 5785 5774 5762 5749 5734 5719 5703 5686 5667 5648 5629 5611 5595 5579 5563 5546 5530 5516 5502 5489 5477 5465 5451 5436 5421 5406 5391 5378 5366 5357 5350 5344 5341 5341 5341 5342 5344 5346
5861 5855 5850 5843 5835 5827 5823 5816 5808 5798 5789 5779 5767 5755 5741 5726 5711 5694 5676 5658 5639 5621 5603 5586 5570 5554 5538 5523 5507 5493 5481 5468 5454 5439 5423 5406 5388 5371 5355 5342 5332 5325 5321 5319 5321 5323 5326 5330 5332
5858 5853 5846 5840 5832 5823 5815 5813 5803 5794 5783 5772 5760 5747 5734 5719 5703 5686 5668 5650 5631 5613 5596 5580 5565 5549 5533 5517 5501 5486 5473 5459 5444 5427 5410 5391 5371 5350 5332 5316 5305 5298 5295 5296 5300 5305 5310 5316 5320
5856 5850 5843 5836 5828 5819 5810 5807 5797 5788 5777 5766 5754 5741 5727 5712 5695 5679 5661 5643 5625 5608 5591 5576 5560 5544 5528 5511 5495 5480 5466 5451 5435 5417 5398 5377 5353 5330 5310 5295 5285 5278 5276 5278 5283 5289 5297 5304 5308